Location: Unspecified
(0.0000°N, 0.0000°E)
Time: 22:05:02
(UTC+02:00)

Cosmos 1908 Rocket - Visible Passes

Search period start: 28 May 2016 00:00
Search period end: 07 June 2016 00:00
Orbit: 606 x 633 km, 82.5° (Epoch: 27 May)

Date Brightness Start Highest point End Pass type
(mag) Time Alt. Az. Time Alt. Az. Time Alt. Az.
28 May 6.6 05:07:31 13° ENE 05:07:31 13° ENE 05:08:30 10° ENE visible
28 May 5.2 06:44:44 18° WNW 06:44:44 18° WNW 06:46:38 10° NW visible
29 May 5.9 05:25:42 20° NE 05:25:42 20° NE 05:27:20 10° NNE visible
30 May 5.7 05:43:49 20° N 05:43:49 20° N 05:45:11 10° N visible
31 May 6.0 06:01:52 13° NNW 06:01:52 13° NNW 06:02:23 10° NNW visible
